Regional Weather Roundup
Issued by NWS Cleveland, OH

Home | Current Version | Previous Version | Graphics & Text | Print | Product List | Glossary On
Versions: 1 2 3 4 5 6 7 8 9 10 11 12 13 14 15 16 17 18 19 20 21 22 23 24 25 26 27 28 29 30 31 32 33 34 35 36 37 38 39 40 41 42 43 44 45 46 47 48 49 50
000
ASUS41 KCLE 280610
RWRCLE
OHIO REGIONAL WEATHER ROUNDUP
NATIONAL WEATHER SERVICE CLEVELAND, OH
200 AM EDT TUE MAR 28 2017

NOTE: "FAIR" INDICATES FEW OR NO CLOUDS BELOW 12,000 FEET WITH NO
SIGNIFICANT WEATHER AND/OR OBSTRUCTIONS TO VISIBILITY.

OHZ001>008-015>018-024>027-034-035-043-044-280700-
   NORTHWEST OHIO

CITY           SKY/WX    TMP DP  RH WIND       PRES   REMARKS
DEFIANCE       CLOUDY    52  48  86 N12       29.87F
FINDLAY        CLOUDY    56  48  74 NE8       29.84F
TOLEDO EXPRESS CLOUDY    52  49  89 N7        29.87F
TOLEDO EXEC    CLOUDY    53  50  89 NE5       29.88F
LIMA           RAIN      53  52  96 CALM      29.86R FOG
$$

OHZ009>014-019>023-028>033-038-089-280700-
   NORTHEAST OHIO

CITY           SKY/WX    TMP DP  RH WIND       PRES   REMARKS
CLE-HOPKINS    CLOUDY    53  46  77 E5        29.89F
CLE-LAKEFRONT  CLOUDY    50  46  86 NE6       29.86F
CUY CO. ARPT   NOT AVBL
LORAIN-ELYRIA  PTCLDY    50  45  83 NE6       29.86F
ASHTABULA      CLOUDY    47  47 100 CALM      29.89F
AKRON-CANTON   RAIN      53  49  86 NE8       29.86F FOG
WOOSTER        LGT RAIN  53  50  89 E9        29.87F FOG
MANSFIELD      RAIN      53  50  89 NE7       29.86S FOG
YOUNGSTOWN     CLOUDY    51  47  86 NE8       29.88F
$$

OHZ042-051>053-060>062-070>072-077>081-280700-
  SOUTHWEST OHIO

CITY           SKY/WX    TMP DP  RH WIND       PRES   REMARKS
CINC-COVINGTON CLOUDY    56  55  97 S7        29.83F
CINC-LUNKEN    CLOUDY    57  56  96 S6        29.84F
HAMILTON       CLOUDY    58  57  97 CALM      29.84S
DAYTON         LGT RAIN  56  55  97 W5        29.84S FOG
WRIGHT-PAT AFB DRIZZLE   57  57 100 CALM      29.83S
DAYTON GENERAL CLOUDY    56  55  97 S6        29.82F
WILMINGTON     CLOUDY    55  55 100 S5        29.83F
$$

OHZ036-037-039>041-045>050-054>059-063>069-073>076-082>088-280700-
  CENTRAL AND SOUTHEAST OHIO

CITY           SKY/WX    TMP DP  RH WIND       PRES   REMARKS
COLUMBUS       LGT RAIN  58  57  97 SW5       29.83S
OSU AIRPORT    RAIN      56  55  97 W3        29.83S FOG
BOLTON FIELD   LGT RAIN  56  55  98 NW6       29.83F
RICKENBACK AFB LGT RAIN  56  56 100 SW5       29.83S
NEWARK         LGT RAIN  58  54  86 SW5       29.83S
MARION         HVY RAIN  54  51  90 E3        29.85R FOG
LANCASTER      LGT RAIN  60  56  86 CALM      29.84F
ZANESVILLE     LGT RAIN  60  52  74 SW10      29.85R
NEW PHILLY     NOT AVBL
$$




USA.gov is the U.S. government's official web portal to all federal, state and local government web resources and services.